Watson, IL

12:18 AM CST on December 03, 2016 (GMT -0600)
Effingham

Weather History for K1H2 - December, 2013

Change the Weather History Date:

Monday, December 23, 2013

  Actual Average (KMTO) Record (KMTO)
Temperature  
Mean Temperature 22 °F 29 °F  
Max Temperature 29 °F 36 °F 63 °F (2015)
Min Temperature 13 °F 22 °F -16 °F (1989)
Degree Days  
Heating Degree Days 44 36  
Month to date heating degree days 753  
Since 1 July heating degree days 1812  
Cooling Degree Days 0 0  
Month to date cooling degree days 0  
Year to date cooling degree days 1057  
Moisture  
Dew Point 16 °F    
Average Humidity 70    
Maximum Humidity 80    
Minimum Humidity 61    
Precipitation  
Precipitation 0.00 in 0.11 in 0.82 in (2008)
Month to date precipitation 1.94  
Year to date precipitation 37.22  
Sea Level Pressure  
Sea Level Pressure 30.42 in    
Wind  
Wind Speed 13 mph (WNW)    
Max Wind Speed 18 mph    
Max Gust Speed 23 mph    
Visibility 10 miles    
Events Snow    
T = Trace of Precipitation, MM = Missing Value Source: NWS Daily Summary

Daily Weather History Graph

Daily Weather History Graph

Search for Another Location

Airport or City:

Trip Planner

Search our weather history database for the weather conditions in past years. The results will help you decide how hot, cold, wet, or windy it might be!

Date:

Astronomy

Dec. 23, 2013 Rise Set
Actual Time 7:10 AM CST 4:36 PM CST
Civil Twilight 6:40 AM CST 5:06 PM CST
Nautical Twilight 6:07 AM CST 5:39 PM CST
Astronomical Twilight 5:34 AM CST 6:12 PM CST
Moon 10:43 PM CST (12/23) 10:38 AM CST (12/23)
Length of Visible Light 10h 25m
Length of Day
9h 25m
Waning Gibbous, 68% of the Moon is Illuminated
Dec 23
Waning Gibbous
Dec 25
Last Quarter
Jan 1
New
Jan 7
First Quarter
Jan 15
Full

Hourly Weather History & Observations

Time (CST) Temp. Windchill Dew Point Humidity Pressure Visibility Wind Dir Wind Speed Gust Speed Precip Events Conditions
12:15 AM 29.8 °F 18.4 °F 24.3 °F 80% 30.21 in 10.0 mi WNW 16.1 mph - N/A   Overcast
12:35 AM 29.3 °F 17.3 °F 23.7 °F 80% 30.22 in 10.0 mi WNW 17.3 mph 23.0 mph N/A Snow Light Snow
12:55 AM 28.9 °F 18.6 °F 23.0 °F 78% 30.23 in 10.0 mi WNW 12.7 mph - N/A Snow Light Snow
1:15 AM 29.1 °F 19.4 °F 23.0 °F 78% 30.23 in 10.0 mi WNW 11.5 mph 16.1 mph N/A   Overcast
1:35 AM 28.9 °F 19.8 °F 22.1 °F 76% 30.24 in 10.0 mi WNW 10.4 mph - N/A Snow Light Snow
1:55 AM 28.2 °F 18.3 °F 21.0 °F 74% 30.25 in 10.0 mi WNW 11.5 mph - N/A Snow Light Snow
2:15 AM 28.0 °F 17.0 °F 20.8 °F 74% 30.27 in 10.0 mi WNW 13.8 mph - N/A Snow Light Snow
2:35 AM 27.9 °F 16.3 °F 21.2 °F 76% 30.28 in 10.0 mi WNW 15.0 mph 19.6 mph N/A Snow Light Snow
2:55 AM 27.5 °F 16.3 °F 20.8 °F 76% 30.28 in 10.0 mi WNW 13.8 mph - N/A Snow Light Snow
3:15 AM 27.1 °F 15.9 °F 20.8 °F 77% 30.29 in 10.0 mi NW 13.8 mph - N/A Snow Light Snow
3:35 AM 26.6 °F 16.2 °F 20.5 °F 78% 30.29 in 10.0 mi WNW 11.5 mph - N/A Snow Light Snow
3:55 AM 25.7 °F 12.3 °F 19.6 °F 78% 30.30 in 10.0 mi WNW 18.4 mph - N/A Snow Light Snow
4:15 AM 25.3 °F 14.1 °F 19.2 °F 78% 30.31 in 10.0 mi West 12.7 mph 17.3 mph N/A Snow Light Snow
4:35 AM 25.2 °F 14.4 °F 18.5 °F 76% 30.31 in 10.0 mi WNW 11.5 mph - N/A Snow Light Snow
4:55 AM 24.4 °F 13.0 °F 18.1 °F 77% 30.33 in 10.0 mi WNW 12.7 mph - N/A Snow Light Snow
5:15 AM 23.5 °F 11.3 °F 17.2 °F 77% 30.34 in 10.0 mi NW 13.8 mph - N/A Snow Light Snow
5:35 AM 23.7 °F 11.5 °F 17.6 °F 77% 30.35 in 10.0 mi WNW 13.8 mph - N/A   Overcast
5:55 AM 23.7 °F 11.5 °F 17.1 °F 76% 30.36 in 10.0 mi NW 13.8 mph 17.3 mph N/A   Overcast
6:15 AM 23.9 °F 12.3 °F 17.2 °F 76% 30.36 in 10.0 mi WNW 12.7 mph 18.4 mph N/A   Overcast
6:35 AM 24.4 °F 13.5 °F 17.6 °F 75% 30.37 in 10.0 mi WNW 11.5 mph - N/A   Overcast
6:55 AM 24.6 °F 14.4 °F 17.6 °F 75% 30.38 in 10.0 mi WNW 10.4 mph - N/A   Overcast
7:15 AM 23.9 °F 10.8 °F 17.1 °F 75% 30.39 in 10.0 mi NW 16.1 mph - N/A   Overcast
7:35 AM 23.7 °F 12.1 °F 16.9 °F 75% 30.41 in 10.0 mi NW 12.7 mph - N/A   Overcast
7:55 AM 23.5 °F 13.0 °F 16.7 °F 75% 30.42 in 10.0 mi WNW 10.4 mph - N/A Snow Light Snow
8:15 AM 23.5 °F 12.4 °F 16.7 °F 75% 30.42 in 10.0 mi WNW 11.5 mph 17.3 mph N/A   Overcast
8:35 AM 23.2 °F 12.6 °F 15.8 °F 73% 30.43 in 10.0 mi NW 10.4 mph - N/A   Overcast
8:55 AM 23.5 °F 11.8 °F 16.2 °F 73% 30.44 in 10.0 mi WNW 12.7 mph - N/A   Overcast
9:15 AM 23.5 °F 12.4 °F 15.6 °F 72% 30.44 in 10.0 mi WNW 11.5 mph - N/A   Overcast
9:35 AM 23.9 °F 12.9 °F 16.0 °F 72% 30.45 in 10.0 mi WNW 11.5 mph - N/A   Overcast
9:55 AM 24.4 °F 13.5 °F 16.2 °F 71% 30.45 in 10.0 mi WNW 11.5 mph - N/A   Overcast
10:15 AM 25.2 °F 14.4 °F 16.7 °F 70% 30.45 in 10.0 mi West 11.5 mph - N/A   Overcast
10:35 AM 25.2 °F 13.3 °F 16.7 °F 70% 30.46 in 10.0 mi West 13.8 mph - N/A   Overcast
10:55 AM 25.3 °F 16.0 °F 16.5 °F 69% 30.46 in 10.0 mi WNW 9.2 mph - N/A   Overcast
11:15 AM 25.3 °F 16.0 °F 17.1 °F 71% 30.46 in 10.0 mi WNW 9.2 mph - N/A   Mostly Cloudy
11:35 AM 25.7 °F 16.4 °F 17.1 °F 70% 30.45 in 10.0 mi WNW 9.2 mph - N/A   Overcast
11:55 AM 26.8 °F 17.7 °F 17.1 °F 67% 30.44 in 10.0 mi WNW 9.2 mph - N/A   Scattered Clouds
12:15 PM 26.2 °F 18.6 °F 16.9 °F 68% 30.44 in 10.0 mi WNW 6.9 mph - N/A   Mostly Cloudy
12:35 PM 26.6 °F 17.5 °F 17.4 °F 68% 30.44 in 10.0 mi WNW 9.2 mph - N/A   Overcast
12:55 PM 27.0 °F 17.3 °F 17.1 °F 66% 30.44 in 10.0 mi WNW 10.4 mph - N/A   Mostly Cloudy
1:15 PM 26.8 °F 17.7 °F 17.1 °F 67% 30.43 in 10.0 mi WNW 9.2 mph - N/A   Scattered Clouds
1:35 PM 27.9 °F 18.4 °F 16.2 °F 62% 30.43 in 10.0 mi West 10.4 mph - N/A   Mostly Cloudy
1:55 PM 27.3 °F 16.6 °F 15.6 °F 61% 30.43 in 10.0 mi West 12.7 mph - N/A   Mostly Cloudy
2:15 PM 28.8 °F 19.5 °F 16.9 °F 61% 30.43 in 10.0 mi WNW 10.4 mph - N/A   Overcast
2:35 PM 27.1 °F 17.5 °F 15.8 °F 62% 30.43 in 10.0 mi WNW 10.4 mph - N/A Snow Light Snow
2:55 PM 27.5 °F 20.2 °F 16.0 °F 62% 30.43 in 10.0 mi WNW 6.9 mph - N/A   Overcast
3:15 PM 27.1 °F 16.4 °F 17.1 °F 66% 30.45 in 10.0 mi WNW 12.7 mph - N/A   Overcast
3:35 PM 26.2 °F 17.1 °F 16.3 °F 66% 30.44 in 10.0 mi WNW 9.2 mph - N/A   Mostly Cloudy
3:55 PM 26.2 °F 17.8 °F 15.6 °F 64% 30.44 in 10.0 mi WNW 8.1 mph - N/A   Scattered Clouds
4:15 PM 25.7 °F 16.4 °F 15.6 °F 66% 30.45 in 10.0 mi West 9.2 mph - N/A   Mostly Cloudy
4:35 PM 25.3 °F 16.0 °F 15.6 °F 67% 30.46 in 10.0 mi WNW 9.2 mph - N/A   Overcast
4:55 PM 24.8 °F 14.0 °F 16.0 °F 69% 30.46 in 10.0 mi WNW 11.5 mph - N/A Snow Light Snow
5:15 PM 24.8 °F 14.6 °F 16.0 °F 69% 30.46 in 10.0 mi WNW 10.4 mph - N/A   Overcast
5:35 PM 24.4 °F 13.5 °F 15.1 °F 68% 30.47 in 10.0 mi WNW 11.5 mph - N/A   Overcast
5:55 PM 23.9 °F 12.9 °F 15.4 °F 70% 30.48 in 7.0 mi WNW 11.5 mph - N/A Snow Light Snow
6:15 PM 23.9 °F 11.7 °F 15.1 °F 69% 30.48 in 10.0 mi WNW 13.8 mph - N/A Snow Light Snow
6:35 PM 23.4 °F 11.1 °F 14.7 °F 70% 30.48 in 10.0 mi WNW 13.8 mph 18.4 mph N/A Snow Light Snow
6:55 PM 22.8 °F 8.9 °F 13.6 °F 68% 30.49 in 10.0 mi WNW 17.3 mph - N/A Snow Light Snow
7:15 PM 22.1 °F 10.0 °F 13.1 °F 68% 30.50 in 10.0 mi WNW 12.7 mph 19.6 mph N/A   Overcast
7:35 PM 21.9 °F 8.7 °F 12.7 °F 68% 30.50 in 10.0 mi WNW 15.0 mph 19.6 mph N/A   Overcast
7:55 PM 21.2 °F 7.8 °F 11.8 °F 67% 30.50 in 10.0 mi WNW 15.0 mph 21.9 mph N/A Snow Light Snow
8:15 PM 20.7 °F 6.6 °F 11.1 °F 67% 30.50 in 10.0 mi WNW 16.1 mph - N/A Snow Light Snow
8:35 PM 19.6 °F 5.7 °F 9.9 °F 66% 30.51 in 10.0 mi WNW 15.0 mph - N/A Snow Light Snow
8:55 PM 18.5 °F 4.9 °F 9.0 °F 66% 30.51 in 10.0 mi NW 13.8 mph - N/A   Mostly Cloudy
9:15 PM 17.6 °F 3.2 °F 6.6 °F 62% 30.51 in 10.0 mi NW 15.0 mph - N/A   Mostly Cloudy
9:35 PM 16.7 °F 1.5 °F 7.2 °F 66% 30.52 in 10.0 mi WNW 16.1 mph - N/A   Scattered Clouds
9:55 PM 16.0 °F 3.6 °F 7.0 °F 68% 30.53 in 10.0 mi West 10.4 mph - N/A   Scattered Clouds
10:15 PM 15.6 °F 1.8 °F 6.8 °F 68% 30.53 in 10.0 mi NW 12.7 mph 17.3 mph N/A   Mostly Cloudy
10:35 PM 14.4 °F 0.9 °F 3.9 °F 63% 30.53 in 10.0 mi NW 11.5 mph - N/A   Scattered Clouds
10:55 PM 14.5 °F 2.7 °F 5.7 °F 68% 30.53 in 10.0 mi NW 9.2 mph - N/A   Mostly Cloudy
11:15 PM 14.4 °F 1.6 °F 5.5 °F 68% 30.53 in 10.0 mi WNW 10.4 mph - N/A   Overcast
11:35 PM 14.2 °F -1.2 °F 4.6 °F 66% 30.53 in 10.0 mi West 15.0 mph - N/A   Overcast
11:55 PM 13.8 °F 1.8 °F 4.5 °F 66% 30.53 in 10.0 mi WNW 9.2 mph - N/A   Overcast